Location: Yellowknife
(62.4500°N, 114.3500°W)
Time: 07:47:43
(UTC-06:00)

Amateur Radio Satellites - All Passes

Search period start: 27 May 2015 07:17
Search period end: 28 May 2015 07:17
Location: Yellowknife, 62.4500°N, 114.3500°W

Satellite Date Start Highest point End Downlink Frequencies (MHz)
Time Altitude Azimuth
YUBILEINY 27 May 07:25:53 07:33:32 37° 80° (E) 07:41:18 435.215
ITAMSAT 1 27 May 07:25:54 07:29:29 19° 325° (NW) 07:33:00 435.822/435.867
HORYU 2 27 May 07:39:56 07:43:40 26° 310° (NW) 07:47:19 437.375
SO-50 27 May 07:40:35 07:45:29 76° 346° (NNW) 07:50:29 436.795
UNISAT 6 27 May 07:47:07 07:48:13 11° 29° (NNE) 07:49:25 437.425
AO-7 27 May 07:48:46 07:57:00 64° 309° (NW) 08:05:13 29.400- 29.500
CUTE-I 27 May 07:59:36 08:04:51 51° 100° (E) 08:10:06 437.470
Gurwin Techsat 1B 27 May 08:05:14 08:08:09 15° 333° (NNW) 08:10:59 435.225
HO-68 27 May 08:12:55 08:15:50 13° 69° (ENE) 08:19:03 435.675
Cosmos 2491 27 May 08:16:52 08:25:27 56° 269° (W) 08:33:56 435.465 / 435.565
Cubesat XI-IV 27 May 08:20:18 08:25:41 67° 105° (ESE) 08:31:03 437.490
PRISM 27 May 08:20:42 08:24:13 27° 267° (W) 08:27:44 437.425
BRITE-PL 27 May 08:24:46 08:29:02 21° 81° (E) 08:33:20 437.365/2234.400
QB50P2 27 May 08:25:45 08:26:24 10° 30° (NNE) 08:27:08 145.880/145.840
JAS-2 27 May 08:25:57 08:30:07 23° 320° (NW) 08:34:05 435.910
GOMX 1 27 May 08:26:34 08:29:46 16° 76° (ENE) 08:33:04 467.674
STRAND 1 27 May 08:26:48 08:31:26 34° 266° (W) 08:36:06 437.568
ANTELSAT 27 May 08:28:16 08:30:58 16° 39° (NE) 08:33:43 437.575/2403.000
AIST 1 27 May 08:29:25 08:33:47 74° 258° (WSW) 08:38:10
Cosmos 2504 27 May 08:34:25 08:37:54 14° 62° (ENE) 08:41:36 435.465 / 435.565
POPSAT HIP 1 27 May 08:37:05 08:38:27 11° 33° (NNE) 08:39:53 437.405
PCSat 27 May 08:38:02 08:43:30 80° 28° (NNE) 08:48:59 145.827
DUCHIFAT 1 27 May 08:38:47 08:40:08 11° 33° (NNE) 08:41:34 145.980
M-CUBED/EXP-1 PRIME 27 May 08:39:20 08:42:12 19° 262° (W) 08:44:51 437.505
CUBESAT XI-V 27 May 08:42:19 08:45:11 16° 279° (W) 08:47:57 437.345
AUBIESAT-1 27 May 08:47:24 08:50:07 18° 263° (W) 08:52:39 437.475
RS-15 27 May 08:50:35 08:58:11 23° 101° (E) 09:06:19 29.354- 29.394
TIGRISAT 27 May 08:59:53 09:03:20 21° 46° (NE) 09:06:48 435.000
BUGSAT 1 27 May 09:00:15 09:01:50 12° 34° (NE) 09:03:30 437.445
CINEMA 3 27 May 09:03:22 09:04:18 11° 72° (ENE) 09:05:25 145.822/145.860
ITAMSAT 1 27 May 09:05:58 09:07:15 11° 349° (N) 09:08:29 435.822/435.867
HORYU 2 27 May 09:18:03 09:19:02 11° 333° (NNW) 09:19:57 437.375
QB50P1 27 May 09:19:07 09:21:55 17° 43° (NE) 09:24:48 145.935-145.965
UNISAT 6 27 May 09:19:53 09:23:45 27° 51° (NE) 09:27:35 437.425
YUBILEINY 27 May 09:20:53 09:29:41 87° 286° (WNW) 09:38:29 435.215
POLYITAN 1 27 May 09:21:10 09:24:04 18° 44° (NE) 09:27:02 437.675
SO-50 27 May 09:21:26 09:26:23 72° 10° (N) 09:31:22 436.795
DOVE 4 27 May 09:25:32 09:29:50 25° 85° (E) 09:34:04 437.250
CUTE-I 27 May 09:39:51 09:45:00 49° 302° (WNW) 09:50:10 437.470
AO-7 27 May 09:41:26 09:48:42 35° 334° (NNW) 09:55:56 29.400- 29.500
Gurwin Techsat 1B 27 May 09:45:21 09:46:10 10° 358° (N) 09:46:59 435.225
NANOSAT C BR1 27 May 09:49:26 09:52:53 24° 50° (NE) 09:56:22 145.865
CANX-2 27 May 09:50:33 09:54:19 31° 93° (E) 09:58:06 2200.000
CUBEBUG 2 27 May 09:51:58 09:54:07 13° 78° (ENE) 09:56:24 437.445
CUTE 1.7 + AOD 2 27 May 09:54:03 09:57:49 30° 93° (E) 10:01:35 437.475
QB50P2 27 May 09:57:28 10:01:06 27° 52° (NE) 10:04:46 145.880/145.840
HO-68 27 May 09:59:11 10:05:54 41° 95° (E) 10:12:38 435.675
Cubesat XI-IV 27 May 10:00:39 10:05:38 39° 307° (NW) 10:10:34 437.490
ANTELSAT 27 May 10:02:26 10:06:52 45° 60° (ENE) 10:11:15 437.575/2403.000
BRITE-PL 27 May 10:02:48 10:08:33 72° 103° (ESE) 10:14:10 437.365/2234.400
Oscar 11 27 May 10:03:38 10:06:15 16° 83° (E) 10:08:59 145.826/435.025
GOMX 1 27 May 10:03:46 10:09:11 55° 99° (E) 10:14:25 467.674
AIST 1 27 May 10:08:01 10:10:47 16° 279° (W) 10:13:27
POPSAT HIP 1 27 May 10:09:25 10:13:13 31° 55° (NE) 10:17:02 437.405
DUCHIFAT 1 27 May 10:11:04 10:14:51 31° 55° (NE) 10:18:40 145.980
JAS-2 27 May 10:11:29 10:13:32 12° 346° (NNW) 10:15:30 435.910
Cosmos 2491 27 May 10:14:26 10:20:31 21° 295° (WNW) 10:26:22 435.465 / 435.565
SEEDS 27 May 10:16:04 10:20:01 38° 96° (E) 10:23:57 437.485
PCSat 27 May 10:21:37 10:26:45 43° 233° (SW) 10:31:50 145.827
Cosmos 2504 27 May 10:22:04 10:29:26 42° 87° (E) 10:36:25 435.465 / 435.565
Oscar 19 27 May 10:26:45 10:29:10 14° 25° (NNE) 10:31:40 437.125/150
COMPASS 1 27 May 10:28:45 10:32:42 40° 97° (E) 10:36:39 437.405
BUGSAT 1 27 May 10:32:27 10:36:15 33° 56° (NE) 10:40:07 437.445
TIGRISAT 27 May 10:34:50 10:39:30 70° 67° (ENE) 10:44:05 435.000
UWE-3 27 May 10:37:49 10:41:22 23° 87° (E) 10:44:54 435.000/436.395/437.385
CINEMA 3 27 May 10:38:18 10:42:58 42° 96° (E) 10:47:26 145.822/145.860
AAUSAT CUBESAT 2 27 May 10:40:34 10:44:34 44° 99° (E) 10:48:33 437.432
ITAMSAT 1 27 May 10:43:11 10:44:42 11° 14° (NNE) 10:46:17 435.822/435.867
FUNcube-1 27 May 10:46:56 10:50:21 22° 87° (E) 10:53:46 145.935
QB50P1 27 May 10:52:51 10:57:05 57° 64° (ENE) 11:01:20 145.935-145.965
POLYITAN 1 27 May 10:55:02 10:59:17 59° 65° (ENE) 11:03:36 437.675
UNISAT 6 27 May 10:55:27 11:00:09 86° 252° (WSW) 11:04:47 437.425
RS-15 27 May 10:57:38 11:08:08 57° 128° (SE) 11:19:07 29.354- 29.394
SO-50 27 May 11:02:06 11:07:02 67° 213° (SSW) 11:11:58 436.795
DOVE 4 27 May 11:02:58 11:08:18 88° 279° (W) 11:13:23 437.250
DELFI C3 27 May 11:05:22 11:09:01 32° 95° (E) 11:12:40 145.870
HUMSAT D 27 May 11:18:34 11:21:48 21° 88° (E) 11:25:04 437.325/437.525
YUBILEINY 27 May 11:19:43 11:27:48 38° 314° (NW) 11:35:47 435.215
CUTE-I 27 May 11:20:23 11:24:08 20° 325° (NW) 11:27:50 437.470
Gurwin Techsat 1B 27 May 11:21:37 11:24:08 14° 23° (NNE) 11:26:44 435.225
NANOSAT C BR1 27 May 11:23:59 11:28:17 90° 250° (WSW) 11:32:38 145.865
CANX-2 27 May 11:26:21 11:30:32 57° 295° (WNW) 11:34:40 2200.000
ZACube-1 27 May 11:27:21 11:31:34 41° 97° (E) 11:35:40 437.345
CUBEBUG 2 27 May 11:27:24 11:31:57 56° 101° (E) 11:36:19 437.445
UKube-1 27 May 11:28:34 11:32:06 24° 90° (E) 11:35:41 .
CUTE 1.7 + AOD 2 27 May 11:29:51 11:34:01 57° 295° (WNW) 11:38:10 437.475
QB50P2 27 May 11:32:19 11:36:39 78° 253° (WSW) 11:41:01 145.880/145.840
AO-7 27 May 11:32:53 11:39:33 28° 2° (N) 11:46:15 29.400- 29.500
DX 1 27 May 11:37:47 11:41:39 29° 93° (E) 11:45:31 434.975-435.025
Oscar 11 27 May 11:38:57 11:43:17 70° 105° (ESE) 11:47:35 145.826/435.025
ANTELSAT 27 May 11:39:13 11:43:43 45° 261° (W) 11:48:08 437.575/2403.000
Cubesat XI-IV 27 May 11:41:14 11:44:35 17° 330° (NNW) 11:47:52 437.490
DANDE 27 May 11:41:16 11:45:12 15° 62° (ENE) 11:49:33 436.750
BRITE-PL 27 May 11:41:32 11:46:48 39° 306° (NW) 11:51:58 437.365/2234.400
GOMX 1 27 May 11:42:01 11:47:16 46° 302° (WNW) 11:52:20 467.674
POPSAT HIP 1 27 May 11:44:34 11:48:52 65° 256° (WSW) 11:53:11 437.405
DUCHIFAT 1 27 May 11:46:10 11:50:26 64° 256° (WSW) 11:54:45 145.980
HO-68 27 May 11:47:03 11:54:14 75° 299° (WNW) 12:01:23 435.675
CUBEBUG 1 27 May 11:50:58 11:53:45 16° 83° (E) 11:56:39 437.445
SEEDS 27 May 11:51:54 11:55:56 46° 297° (WNW) 11:59:56 437.485
VELOX 1 27 May 11:53:33 11:57:15 25° 90° (E) 12:01:00 145.980
JAS-2 27 May 11:54:33 11:56:30 12° 13° (NNE) 11:58:28 435.910
GONETS M04 27 May 11:57:39 12:03:19 20° 64° (ENE) 12:09:13
ESTCUBE 1 27 May 11:58:11 12:01:31 20° 86° (E) 12:04:55 437.505/2401.250
Oscar 19 27 May 12:02:44 12:07:10 29° 48° (NE) 12:11:37 437.125/150
COMPASS 1 27 May 12:04:29 12:08:27 43° 299° (WNW) 12:12:23 437.405
PCSat 27 May 12:06:30 12:08:59 13° 254° (WSW) 12:11:18 145.827
CUSAT 1 27 May 12:07:09 12:12:50 22° 73° (ENE) 12:18:49 437.405
BUGSAT 1 27 May 12:07:25 12:11:34 57° 258° (WSW) 12:15:48 437.445
50 SAT 27 May 12:08:53 12:12:25 31° 95° (E) 12:15:55 437.505
TIGRISAT 27 May 12:12:34 12:16:39 29° 268° (W) 12:20:39 435.000
UWE-3 27 May 12:13:58 12:18:31 83° 290° (WNW) 12:22:53 435.000/436.395/437.385
Cosmos 2504 27 May 12:14:30 12:22:34 72° 291° (WNW) 12:30:06 435.465 / 435.565
CINEMA 3 27 May 12:15:32 12:20:18 50° 299° (WNW) 12:24:50 145.822/145.860
AAUSAT CUBESAT 2 27 May 12:16:18 12:20:11 39° 300° (WNW) 12:24:03 437.432
ITAMSAT 1 27 May 12:18:49 12:22:33 21° 38° (NE) 12:26:22 435.822/435.867
FUNcube-1 27 May 12:22:50 12:27:17 84° 290° (WNW) 12:31:36 145.935
AISAT 27 May 12:25:09 12:29:26 41° 97° (E) 12:33:43 437.250
SPROUT 27 May 12:28:36 12:30:35 13° 79° (E) 12:32:43 437.525
QB50P1 27 May 12:29:19 12:33:12 32° 266° (W) 12:37:06 145.935-145.965
POLYITAN 1 27 May 12:31:37 12:35:30 31° 266° (W) 12:39:22 437.675
UNISAT 6 27 May 12:34:01 12:37:35 21° 273° (W) 12:41:04 437.425
DELFI C3 27 May 12:40:24 12:44:19 51° 296° (WNW) 12:48:14 145.870
DOVE 4 27 May 12:41:02 12:45:33 29° 311° (NW) 12:49:52 437.250
SO-50 27 May 12:42:57 12:47:00 25° 235° (SW) 12:51:00 436.795
TISAT 1 27 May 12:49:56 12:52:15 14° 82° (E) 12:54:42 437.305
HUMSAT D 27 May 12:53:52 12:58:07 82° 290° (WNW) 13:02:17 437.325/437.525
Gurwin Techsat 1B 27 May 12:58:13 13:02:42 29° 47° (NE) 13:07:14 435.225
CUTE-I 27 May 13:00:47 13:02:27 11° 349° (N) 13:04:05 437.470
NANOSAT C BR1 27 May 13:01:30 13:04:46 20° 273° (W) 13:07:58 145.865
CANX-2 27 May 13:03:01 13:05:45 17° 316° (NW) 13:08:26 2200.000
ZACube-1 27 May 13:03:46 13:08:01 45° 299° (WNW) 13:12:09 437.345
CUBEBUG 2 27 May 13:04:17 13:08:31 36° 303° (WNW) 13:12:36 437.445
UKube-1 27 May 13:04:22 13:08:45 78° 292° (WNW) 13:13:07 .
CUTE 1.7 + AOD 2 27 May 13:06:28 13:09:14 17° 316° (NW) 13:11:56 437.475
RS-15 27 May 13:08:58 13:20:05 88° 340° (NNW) 13:31:44 29.354- 29.394
QB50P2 27 May 13:10:20 13:13:19 18° 276° (W) 13:16:12 145.880/145.840
DX 1 27 May 13:13:52 13:18:15 65° 295° (WNW) 13:22:38 434.975-435.025
Oscar 11 27 May 13:15:27 13:19:12 29° 306° (NW) 13:22:54 145.826/435.025
DANDE 27 May 13:19:10 13:26:20 39° 85° (E) 13:34:06 436.750
ANTELSAT 27 May 13:20:20 13:21:44 11° 284° (WNW) 13:22:56 437.575/2403.000
BRITE-PL 27 May 13:20:28 13:24:03 17° 328° (NNW) 13:27:34 437.365/2234.400
GOMX 1 27 May 13:20:36 13:24:19 19° 324° (NW) 13:27:54 467.674
YUBILEINY 27 May 13:21:11 13:27:43 22° 345° (NNW) 13:34:11 435.215
Cubesat XI-IV 27 May 13:21:28 13:22:48 11° 355° (N) 13:24:08 437.490
POPSAT HIP 1 27 May 13:23:05 13:25:38 15° 278° (W) 13:28:05 437.405
AO-7 27 May 13:23:09 13:30:28 36° 29° (NNE) 13:37:52 29.400- 29.500
DUCHIFAT 1 27 May 13:24:40 13:27:09 15° 278° (W) 13:29:32 145.980
CUBEBUG 1 27 May 13:26:30 13:30:59 70° 106° (ESE) 13:35:26 437.445
SEEDS 27 May 13:28:36 13:30:54 14° 319° (NW) 13:33:08 437.485
VELOX 1 27 May 13:29:48 13:34:20 78° 292° (WNW) 13:38:49 145.980
ESTCUBE 1 27 May 13:34:31 13:39:06 85° 108° (ESE) 13:43:39 437.505/2401.250
HO-68 27 May 13:34:57 13:41:14 34° 323° (NW) 13:47:26 435.675
JAS-2 27 May 13:35:36 13:39:53 22° 39° (NE) 13:43:59 435.910
Oscar 19 27 May 13:40:51 13:46:05 89° 72° (ENE) 13:51:20 437.125/150
COMPASS 1 27 May 13:41:08 13:43:15 14° 320° (NW) 13:45:19 437.405
50 SAT 27 May 13:43:30 13:47:20 50° 296° (WNW) 13:51:05 437.505
BUGSAT 1 27 May 13:46:01 13:48:02 13° 280° (W) 13:49:57 437.445
CUSAT 1 27 May 13:46:22 13:54:08 57° 95° (E) 14:02:11 437.405
GONETS M04 27 May 13:49:50 13:58:17 54° 90° (E) 14:06:48
UWE-3 27 May 13:50:56 13:54:31 23° 312° (NW) 13:57:59 435.000/436.395/437.385
AAUSAT CUBESAT 2 27 May 13:52:59 13:54:53 13° 321° (NW) 13:56:42 437.432
CINEMA 3 27 May 13:53:18 13:56:34 18° 321° (NW) 13:59:42 145.822/145.860
ITUPSAT 1 27 May 13:55:32 13:57:54 14° 79° (E) 14:00:25 437.325
ITAMSAT 1 27 May 13:56:10 14:01:14 55° 61° (ENE) 14:06:20 435.822/435.867
FUNcube-1 27 May 13:59:37 14:03:08 23° 311° (NW) 14:06:31 145.935
HORYU 2 27 May 14:00:26 14:03:40 20° 44° (NE) 14:06:57 437.375
AISAT 27 May 14:01:47 14:06:09 48° 299° (WNW) 14:10:29 437.250
BEESAT 27 May 14:02:39 14:05:25 15° 81° (E) 14:08:19 436.000
SPROUT 27 May 14:03:23 14:07:42 56° 102° (ESE) 14:11:59 437.525
Cosmos 2504 27 May 14:10:33 14:17:22 30° 317° (NW) 14:23:47 435.465 / 435.565
SWISSCUBE 27 May 14:10:57 14:14:14 18° 84° (E) 14:17:37 437.505
DELFI C3 27 May 14:16:22 14:18:42 15° 317° (NW) 14:20:57 145.870
DOVE 4 27 May 14:19:28 14:21:52 13° 334° (NNW) 14:24:10 437.250
TISAT 1 27 May 14:24:39 14:28:57 63° 104° (ESE) 14:33:12 437.305
HUMSAT D 27 May 14:30:07 14:33:22 22° 311° (NW) 14:36:33 437.325/437.525
Gurwin Techsat 1B 27 May 14:36:52 14:42:12 86° 70° (ENE) 14:47:35 435.225
CUTE-I 27 May 14:38:34 14:40:29 12° 14° (NNE) 14:42:26 437.470
ZACube-1 27 May 14:40:54 14:43:29 15° 321° (NW) 14:45:58 437.345
UKube-1 27 May 14:40:59 14:44:22 22° 313° (NW) 14:47:43 .
CUBEBUG 2 27 May 14:41:51 14:44:07 14° 326° (NW) 14:46:17 437.445
DX 1 27 May 14:50:40 14:53:52 20° 316° (NW) 14:57:00 434.975-435.025
Cosmos 2499 27 May 14:50:43 14:57:07 30° 80° (E) 15:03:18 435.465 / 435.565
Oscar 11 27 May 14:53:09 14:54:13 11° 328° (NNW) 14:55:13 145.826/435.025
Cubesat XI-IV 27 May 14:58:31 15:00:53 13° 20° (NNE) 15:03:19 437.490
BRITE-PL 27 May 14:59:15 15:00:35 11° 352° (N) 15:01:53 437.365/2234.400
GOMX 1 27 May 14:59:24 15:00:34 11° 348° (NNW) 15:01:40 467.674
DANDE 27 May 15:00:57 15:09:00 87° 289° (WNW) 15:17:42 436.750
CUBEBUG 1 27 May 15:03:10 15:07:05 30° 306° (NW) 15:10:58 437.445
VELOX 1 27 May 15:06:50 15:10:21 23° 313° (NW) 15:13:49 145.980
ESTCUBE 1 27 May 15:11:46 15:15:35 27° 309° (NW) 15:19:21 437.505/2401.250
AO-7 27 May 15:14:05 15:22:19 70° 54° (NE) 15:30:37 29.400- 29.500
JAS-2 27 May 15:18:14 15:24:13 57° 61° (ENE) 15:29:38 435.910
50 SAT 27 May 15:19:07 15:21:18 14° 317° (NW) 15:23:24 437.505
Oscar 19 27 May 15:21:51 15:26:09 25° 272° (W) 15:30:24 437.125/150
RS-15 27 May 15:21:53 15:33:10 81° 9° (N) 15:45:01 29.354- 29.394
YUBILEINY 27 May 15:21:54 15:28:25 22° 17° (NNE) 15:34:58 435.215
HO-68 27 May 15:22:05 15:27:13 22° 349° (N) 15:32:19 435.675
CUSAT 1 27 May 15:28:53 15:36:57 63° 299° (WNW) 15:45:08 437.405
ITUPSAT 1 27 May 15:32:13 15:36:57 54° 102° (ESE) 15:41:40 437.325
KKS-1 27 May 15:33:56 15:37:11 20° 86° (E) 15:40:30 437.445
HORYU 2 27 May 15:35:14 15:39:42 66° 65° (ENE) 15:44:09 437.375
ITAMSAT 1 27 May 15:36:02 15:40:57 42° 263° (W) 15:45:55 435.822/435.867
AISAT 27 May 15:39:04 15:41:53 16° 321° (NW) 15:44:38 437.250
BEESAT 27 May 15:39:32 15:44:19 61° 104° (ESE) 15:49:04 436.000
SPROUT 27 May 15:39:41 15:43:40 35° 303° (WNW) 15:47:36 437.525
GONETS M04 27 May 15:46:22 15:55:10 64° 296° (WNW) 16:03:59
SWISSCUBE 27 May 15:48:10 15:52:59 73° 107° (ESE) 15:57:47 437.505
O/OREOS (USA 219) 27 May 15:53:51 15:56:15 15° 102° (ESE) 15:58:47 437.305
TISAT 1 27 May 16:00:42 16:04:32 31° 305° (NW) 16:08:18 437.305
Cosmos 2504 27 May 16:08:51 16:13:43 17° 348° (NNW) 16:18:23 435.465 / 435.565
CUTE-I 27 May 16:14:56 16:18:53 22° 39° (NE) 16:22:55 437.470
Gurwin Techsat 1B 27 May 16:18:23 16:22:53 27° 272° (W) 16:27:21 435.225
BRITE-PL 27 May 16:34:50 16:36:53 12° 17° (NNE) 16:39:02 437.365/2234.400
Cubesat XI-IV 27 May 16:35:10 16:39:28 26° 44° (NE) 16:43:52 437.490
GOMX 1 27 May 16:35:24 16:36:30 11° 12° (NNE) 16:37:39 467.674
STARS 27 May 16:36:15 16:40:23 36° 96° (E) 16:44:31 437.465
CUBEBUG 1 27 May 16:40:43 16:42:18 12° 328° (NNW) 16:43:49 437.445
Cosmos 2499 27 May 16:41:43 16:49:33 86° 104° (ESE) 16:56:53 435.465 / 435.565
DANDE 27 May 16:45:36 16:53:20 41° 314° (NW) 17:01:20 436.750
ESTCUBE 1 27 May 16:50:03 16:51:12 11° 332° (NNW) 16:52:16 437.505/2401.250
JAS-2 27 May 17:03:39 17:09:36 45° 262° (W) 17:14:57 435.910
AO-7 27 May 17:07:31 17:15:36 51° 259° (W) 17:23:42 29.400- 29.500
MOZHAYETS 4 27 May 17:07:32 17:10:40 18° 84° (E) 17:13:53
HO-68 27 May 17:07:37 17:12:52 23° 16° (NNE) 17:18:09 435.675
KKS-1 27 May 17:10:00 17:14:34 83° 111° (ESE) 17:19:04 437.445
ITUPSAT 1 27 May 17:10:18 17:14:48 40° 303° (WNW) 17:19:15 437.325
HORYU 2 27 May 17:12:45 17:16:42 29° 267° (W) 17:20:38 437.375
CUSAT 1 27 May 17:14:02 17:21:15 31° 324° (NW) 17:28:18 437.405
SPROUT 27 May 17:16:50 17:18:43 12° 325° (NW) 17:20:31 437.525
BEESAT 27 May 17:17:38 17:22:01 36° 305° (NW) 17:26:22 436.000
YUBILEINY 27 May 17:20:11 17:28:16 40° 48° (NE) 17:36:21 435.215
ITAMSAT 1 27 May 17:20:30 17:22:01 11° 286° (WNW) 17:23:20 435.822/435.867
SWISSCUBE 27 May 17:26:20 17:30:34 32° 308° (NW) 17:34:46 437.505
O/OREOS (USA 219) 27 May 17:30:27 17:34:53 58° 123° (ESE) 17:39:19 437.305
DOVE 4 27 May 17:31:19 17:33:12 12° 22° (NNE) 17:35:09 437.250
RS-15 27 May 17:34:32 17:45:49 74° 219° (SW) 17:57:37 29.354- 29.394
TISAT 1 27 May 17:37:44 17:39:12 11° 327° (NNW) 17:40:35 437.305
Cosmos 2491 27 May 17:44:11 17:48:40 16° 58° (ENE) 17:53:29 435.465 / 435.565
GONETS M04 27 May 17:46:26 17:54:03 30° 325° (NW) 18:01:35
CUTE-I 27 May 17:52:57 17:58:09 58° 61° (ENE) 18:03:26 437.470
Cosmos 2504 27 May 18:05:37 18:10:37 19° 19° (NNE) 18:15:35 435.465 / 435.565
GOMX 1 27 May 18:09:08 18:12:45 19° 36° (NE) 18:16:28 467.674
BRITE-PL 27 May 18:09:31 18:13:38 22° 40° (NE) 18:17:57 437.365/2234.400
STARS 27 May 18:12:40 18:17:02 52° 298° (WNW) 18:21:21 437.465
Cubesat XI-IV 27 May 18:13:40 18:18:58 75° 67° (ENE) 18:24:22 437.490
DANDE 27 May 18:32:18 18:39:01 25° 340° (NNW) 18:45:38 436.750
AAUSAT CUBESAT 2 27 May 18:35:51 18:36:09 10° 33° (NNE) 18:36:33 437.432
Cosmos 2499 27 May 18:36:30 18:43:35 37° 309° (NW) 18:50:14 435.465 / 435.565
CINEMA 3 27 May 18:39:55 18:42:25 14° 33° (NNE) 18:44:59 145.822/145.860
MOZHAYETS 4 27 May 18:44:06 18:48:42 76° 106° (ESE) 18:53:17
KKS-1 27 May 18:47:00 18:50:49 27° 310° (NW) 18:54:35 437.445
CUBESAT XI-V 27 May 18:48:11 18:51:22 18° 83° (E) 18:54:39 437.345
STRAND 1 27 May 18:48:25 18:49:16 10° 73° (ENE) 18:50:20 437.568
ITUPSAT 1 27 May 18:48:53 18:51:41 15° 326° (NW) 18:54:24 437.325
HO-68 27 May 18:52:33 18:59:00 38° 41° (NE) 19:05:30 435.675
JAS-2 27 May 18:53:43 18:56:17 12° 286° (WNW) 18:58:32 435.910
BEESAT 27 May 18:56:13 18:58:47 14° 328° (NNW) 19:01:15 436.000
CUSAT 1 27 May 19:00:38 19:06:40 21° 350° (N) 19:12:23 437.405
SWISSCUBE 27 May 19:05:01 19:07:14 13° 331° (NNW) 19:09:23 437.505
DOVE 4 27 May 19:05:12 19:09:23 25° 45° (NE) 19:13:40 437.250
AO-7 27 May 19:05:21 19:10:47 18° 286° (WNW) 19:15:57 29.400- 29.500
O/OREOS (USA 219) 27 May 19:10:08 19:14:29 45° 325° (NW) 19:18:50 437.305
BEESAT 3 27 May 19:16:54 19:19:59 21° 125° (SE) 19:23:08 437.485
YUBILEINY 27 May 19:17:28 19:26:15 89° 267° (W) 19:34:59 435.215
CANX-2 27 May 19:19:22 19:22:40 22° 50° (NE) 19:25:59 2200.000
CUTE 1.7 + AOD 2 27 May 19:22:49 19:26:05 22° 50° (NE) 19:29:24 437.475
ZACube-1 27 May 19:25:24 19:26:57 12° 32° (NNE) 19:28:35 437.345
CUBEBUG 2 27 May 19:25:57 19:28:32 15° 37° (NE) 19:31:10 437.445
CUTE-I 27 May 19:33:28 19:38:30 41° 263° (W) 19:43:34 437.470
Oscar 11 27 May 19:34:50 19:37:14 15° 40° (NE) 19:39:42 145.826/435.025
Cosmos 2491 27 May 19:35:10 19:43:15 43° 84° (E) 19:51:26 435.465 / 435.565
DX 1 27 May 19:36:39 19:37:20 10° 27° (NNE) 19:38:05 434.975-435.025
SEEDS 27 May 19:43:52 19:47:21 26° 53° (NE) 19:50:51 437.485
GOMX 1 27 May 19:44:41 19:49:47 45° 58° (ENE) 19:55:03 467.674
BRITE-PL 27 May 19:45:57 19:51:14 58° 63° (ENE) 19:56:50 437.365/2234.400
RS-15 27 May 19:46:49 19:56:49 37° 247° (WSW) 20:07:02 29.354- 29.394
GONETS M04 27 May 19:48:06 19:54:29 21° 357° (N) 20:00:50
STARS 27 May 19:49:47 19:52:42 17° 320° (NW) 19:55:33 437.465
PRISM 27 May 19:51:24 19:54:45 23° 91° (E) 19:58:09 437.425
Cubesat XI-IV 27 May 19:54:52 19:59:37 31° 268° (W) 20:04:21 437.490
COMPASS 1 27 May 19:55:45 19:59:15 27° 54° (NE) 20:02:47 437.405
Cosmos 2504 27 May 19:59:55 20:06:40 36° 49° (NE) 20:13:15 435.465 / 435.565
AIST 2 27 May 20:02:10 20:05:04 18° 122° (ESE) 20:08:02 435.215
BEESAT 2 27 May 20:05:51 20:09:37 35° 134° (SE) 20:13:26 435.950
AAUSAT CUBESAT 2 27 May 20:07:04 20:10:38 28° 55° (NE) 20:14:14 437.432
UWE-3 27 May 20:10:22 20:13:46 21° 46° (NE) 20:17:10 435.000/436.395/437.385
CINEMA 3 27 May 20:13:55 20:18:26 34° 55° (NE) 20:22:57 145.822/145.860
FUNcube-1 27 May 20:18:22 20:21:35 19° 45° (NE) 20:24:48 145.935
DANDE 27 May 20:19:02 20:25:23 22° 7° (N) 20:31:27 436.750
MOZHAYETS 4 27 May 20:21:41 20:25:38 29° 307° (NW) 20:29:32
AISAT 27 May 20:24:17 20:26:12 13° 32° (NNE) 20:28:11 437.250
CUBESAT XI-V 27 May 20:24:57 20:29:40 74° 106° (ESE) 20:34:24 437.345
KKS-1 27 May 20:24:57 20:26:12 11° 332° (NNW) 20:27:23 437.445
STRAND 1 27 May 20:25:11 20:30:03 40° 97° (E) 20:34:55 437.568
DELFI C3 27 May 20:29:22 20:32:24 21° 50° (NE) 20:35:29 145.870
Cosmos 2499 27 May 20:34:10 20:39:14 19° 338° (NNW) 20:44:04 435.465 / 435.565
HO-68 27 May 20:38:59 20:46:13 87° 65° (ENE) 20:53:28 435.675
DOVE 4 27 May 20:41:12 20:46:28 71° 67° (ENE) 20:51:49 437.250
CUSAT 1 27 May 20:46:15 20:52:24 23° 17° (NNE) 20:58:05 437.405
HUMSAT D 27 May 20:46:44 20:49:34 18° 45° (NE) 20:52:28 437.325/437.525
O/OREOS (USA 219) 27 May 20:51:04 20:54:53 26° 350° (N) 20:58:40 437.305
BEESAT 3 27 May 20:53:19 20:57:25 65° 147° (SSE) 21:01:31 437.485
CANX-2 27 May 20:53:51 20:58:08 85° 71° (ENE) 21:02:24 2200.000
CUTE 1.7 + AOD 2 27 May 20:57:16 21:01:32 84° 71° (ENE) 21:05:49 437.475
ZACube-1 27 May 20:58:11 21:02:10 31° 54° (NE) 21:06:09 437.345
UKube-1 27 May 20:59:04 21:02:22 22° 47° (NE) 21:05:45 .
CUBEBUG 2 27 May 20:59:48 21:04:14 40° 59° (ENE) 21:08:39 437.445
Oscar 11 27 May 21:08:25 21:12:34 45° 61° (ENE) 21:16:43 145.826/435.025
DX 1 27 May 21:08:44 21:12:19 25° 50° (NE) 21:15:58 434.975-435.025
AIST 1 27 May 21:10:26 21:14:18 34° 92° (E) 21:18:15
YUBILEINY 27 May 21:14:41 21:22:17 35° 281° (W) 21:29:46 435.215
SEEDS 27 May 21:18:34 21:22:48 79° 253° (WSW) 21:27:03 437.485
CUTE-I 27 May 21:18:42 21:20:13 11° 287° (WNW) 21:21:31 437.470
GOMX 1 27 May 21:22:35 21:27:51 56° 260° (W) 21:33:19 467.674
CUBEBUG 1 27 May 21:23:14 21:25:53 16° 40° (NE) 21:28:38 437.445
BRITE-PL 27 May 21:24:51 21:29:59 43° 266° (W) 21:35:22 437.365/2234.400
VELOX 1 27 May 21:26:29 21:29:57 23° 47° (NE) 21:33:28 145.980
PRISM 27 May 21:26:30 21:30:39 75° 294° (WNW) 21:34:49 437.425
COMPASS 1 27 May 21:30:26 21:34:38 74° 255° (WSW) 21:38:49 437.405
50 SAT 27 May 21:30:30 21:33:28 21° 50° (NE) 21:36:27 437.505
Cosmos 2491 27 May 21:30:51 21:39:43 77° 290° (WNW) 21:48:39 435.465 / 435.565
ESTCUBE 1 27 May 21:33:13 21:36:23 19° 44° (NE) 21:39:37 437.505/2401.250
AIST 2 27 May 21:38:45 21:42:58 56° 143° (SE) 21:47:11 435.215
AAUSAT CUBESAT 2 27 May 21:41:51 21:46:01 68° 256° (WSW) 21:50:11 437.432
M-CUBED/EXP-1 PRIME 27 May 21:43:14 21:46:35 51° 111° (ESE) 21:49:50 437.505
BEESAT 2 27 May 21:43:17 21:47:27 88° 333° (NNW) 21:51:39 435.950
UWE-3 27 May 21:45:00 21:49:39 66° 66° (ENE) 21:54:15 435.000/436.395/437.385
GONETS M04 27 May 21:47:52 21:55:05 27° 29° (NNE) 22:02:19
CINEMA 3 27 May 21:50:20 21:55:23 71° 256° (WSW) 22:00:25 145.822/145.860
AUBIESAT-1 27 May 21:50:32 21:53:53 53° 111° (ESE) 21:57:08 437.475
FUNcube-1 27 May 21:52:43 21:57:15 63° 66° (ENE) 22:01:43 145.935
Cosmos 2504 27 May 21:53:36 22:01:01 86° 257° (WSW) 22:08:13 435.465 / 435.565
AISAT 27 May 21:57:40 22:01:41 33° 54° (NE) 22:05:44 437.250
SPROUT 27 May 21:59:24 22:01:25 13° 36° (NE) 22:03:32 437.525
MOZHAYETS 4 27 May 22:00:08 22:01:38 11° 330° (NNW) 22:03:03
RS-15 27 May 22:02:00 22:05:40 12° 274° (W) 22:08:36 29.354- 29.394
CUBESAT XI-V 27 May 22:02:43 22:06:50 31° 307° (NW) 22:10:56 437.345
DELFI C3 27 May 22:03:01 22:07:04 85° 72° (ENE) 22:11:07 145.870
DANDE 27 May 22:04:05 22:11:28 31° 34° (NE) 22:18:13 436.750
STRAND 1 27 May 22:04:26 22:09:29 57° 299° (WNW) 22:14:32 437.568
TISAT 1 27 May 22:18:50 22:21:04 14° 38° (NE) 22:23:21 437.305
DOVE 4 27 May 22:19:51 22:24:38 33° 269° (W) 22:29:28 437.250
HUMSAT D 27 May 22:20:24 22:24:39 59° 65° (ENE) 22:28:54 437.325/437.525
HO-68 27 May 22:28:21 22:34:49 34° 269° (W) 22:41:14 435.675
CUSAT 1 27 May 22:30:08 22:37:33 38° 44° (NE) 22:43:56 437.405
CANX-2 27 May 22:31:19 22:34:38 21° 273° (W) 22:37:53 2200.000
BEESAT 3 27 May 22:31:21 22:35:28 66° 348° (NNW) 22:39:36 437.485
Cosmos 2499 27 May 22:31:28 22:35:50 16° 10° (N) 22:40:09 435.465 / 435.565
O/OREOS (USA 219) 27 May 22:31:38 22:35:31 27° 15° (NNE) 22:39:24 437.305
UKube-1 27 May 22:33:39 22:38:00 77° 68° (ENE) 22:42:22 .
ZACube-1 27 May 22:33:40 22:38:16 71° 255° (WSW) 22:42:50 437.345
CUTE 1.7 + AOD 2 27 May 22:34:42 22:38:02 21° 273° (W) 22:41:17 437.475
CUBEBUG 2 27 May 22:36:11 22:40:52 53° 259° (W) 22:45:31 437.445
UNISAT 6 27 May 22:38:33 22:39:36 11° 76° (ENE) 22:40:50 437.425
DX 1 27 May 22:43:46 22:48:10 87° 251° (WSW) 22:52:36 434.975-435.025
Oscar 11 27 May 22:44:43 22:48:50 40° 263° (W) 22:52:58 145.826/435.025
AIST 1 27 May 22:47:41 22:51:52 49° 294° (WNW) 22:56:07
SEEDS 27 May 22:56:28 22:59:20 17° 276° (W) 23:02:07 437.485
CUBEBUG 1 27 May 22:57:11 23:01:25 48° 61° (ENE) 23:05:43 437.445
VELOX 1 27 May 23:01:31 23:05:59 79° 67° (ENE) 23:10:29 145.980
PRISM 27 May 23:02:31 23:05:35 20° 313° (NW) 23:08:38 437.425
50 SAT 27 May 23:03:42 23:07:43 83° 71° (ENE) 23:11:43 437.505
GOMX 1 27 May 23:03:53 23:07:15 16° 284° (WNW) 23:10:32 467.674
BRITE-PL 27 May 23:07:50 23:10:09 12° 290° (WNW) 23:12:16 437.365/2234.400
ESTCUBE 1 27 May 23:08:08 23:12:35 62° 65° (ENE) 23:17:04 437.505/2401.250
COMPASS 1 27 May 23:08:23 23:11:04 16° 277° (W) 23:13:40 437.405
QB50P2 27 May 23:09:11 23:09:41 10° 76° (ENE) 23:10:21 145.880/145.840
YUBILEINY 27 May 23:13:23 23:16:25 12° 308° (NW) 23:19:06 435.215
AIST 2 27 May 23:17:14 23:21:33 71° 346° (NNW) 23:25:51 435.215
M-CUBED/EXP-1 PRIME 27 May 23:18:20 23:21:21 29° 313° (NW) 23:24:16 437.505
AAUSAT CUBESAT 2 27 May 23:20:01 23:22:28 15° 278° (W) 23:24:48 437.432
POPSAT HIP 1 27 May 23:20:12 23:21:56 12° 79° (E) 23:23:48 437.405
ANTELSAT 27 May 23:20:24 23:23:47 21° 87° (E) 23:27:09 437.575/2403.000
DUCHIFAT 1 27 May 23:21:21 23:23:03 12° 79° (E) 23:24:54 145.980
BEESAT 2 27 May 23:21:39 23:25:48 61° 359° (N) 23:29:55 435.950
UWE-3 27 May 23:22:22 23:26:32 30° 268° (W) 23:30:38 435.000/436.395/437.385
AUBIESAT-1 27 May 23:25:35 23:28:34 28° 313° (NW) 23:31:27 437.475
FUNcube-1 27 May 23:29:48 23:33:54 31° 267° (W) 23:37:56 145.935
CINEMA 3 27 May 23:29:53 23:33:29 19° 278° (W) 23:36:58 145.822/145.860
Cosmos 2491 27 May 23:30:15 23:38:12 35° 318° (NW) 23:46:07 435.465 / 435.565
SPROUT 27 May 23:32:31 23:36:32 38° 58° (ENE) 23:40:35 437.525
AISAT 27 May 23:33:37 23:38:04 63° 256° (WSW) 23:42:35 437.250
ITUPSAT 1 27 May 23:36:49 23:39:55 18° 38° (NE) 23:43:05 437.325
DELFI C3 27 May 23:39:43 23:42:44 20° 273° (W) 23:45:42 145.870
BUGSAT 1 27 May 23:39:50 23:41:49 13° 80° (E) 23:43:57 437.445
CUBESAT XI-V 27 May 23:41:12 23:43:04 12° 329° (NNW) 23:44:52 437.345
BEESAT 27 May 23:43:37 23:46:53 19° 40° (NE) 23:50:13 436.000
STRAND 1 27 May 23:44:07 23:47:54 21° 321° (NW) 23:51:37 437.568
GONETS M04 27 May 23:45:40 23:54:20 54° 59° (ENE) 00:02:55
Cosmos 2504 27 May 23:47:29 23:53:35 29° 282° (WNW) 23:59:26 435.465 / 435.565
DANDE 27 May 23:48:00 23:56:28 63° 61° (ENE) 00:03:39 436.750
TISAT 1 27 May 23:51:54 23:55:57 42° 59° (ENE) 00:00:01 437.305
SWISSCUBE 27 May 23:51:54 23:55:25 21° 43° (NE) 23:59:00 437.505
TIGRISAT 27 May 23:52:29 23:56:33 33° 94° (E) 00:00:32 435.000
HUMSAT D 27 May 23:56:51 00:00:41 30° 267° (W) 00:04:30 437.325/437.525
QB50P1 28 May 00:03:05 00:06:36 24° 90° (E) 00:10:07 145.935-145.965
POLYITAN 1 28 May 00:05:37 00:09:12 25° 90° (E) 00:12:48 437.675
BEESAT 3 28 May 00:09:39 00:13:47 68° 12° (NNE) 00:17:53 437.485
UKube-1 28 May 00:11:04 00:14:38 24° 270° (W) 00:18:11 .
O/OREOS (USA 219) 28 May 00:11:20 00:15:46 55° 39° (NE) 00:20:11 437.305
ZACube-1 28 May 00:12:23 00:15:28 17° 277° (W) 00:18:25 437.345
CUSAT 1 28 May 00:13:16 00:21:21 87° 71° (ENE) 00:27:54 437.405
UNISAT 6 28 May 00:13:19 00:17:39 47° 99° (E) 00:21:53 437.425
CUBEBUG 2 28 May 00:16:16 00:18:41 13° 282° (WNW) 00:20:55 437.445
DX 1 28 May 00:21:47 00:25:05 20° 273° (W) 00:28:20 434.975-435.025
Cosmos 2499 28 May 00:25:55 00:31:57 28° 41° (NE) 00:37:56 435.465 / 435.565
AIST 1 28 May 00:28:07 00:30:38 15° 318° (NW) 00:33:05
CUBEBUG 1 28 May 00:33:46 00:37:55 39° 263° (W) 00:42:06 437.445
NANOSAT C BR1 28 May 00:33:51 00:37:53 38° 97° (E) 00:41:55 145.865
STARS 28 May 00:35:04 00:36:39 12° 31° (NNE) 00:38:19 437.465
VELOX 1 28 May 00:39:22 00:43:04 24° 271° (W) 00:46:44 145.980
50 SAT 28 May 00:39:56 00:42:57 20° 272° (W) 00:45:54 437.505
QB50P2 28 May 00:42:37 00:46:47 45° 99° (E) 00:50:55 145.880/145.840
ESTCUBE 1 28 May 00:45:46 00:49:48 31° 267° (W) 00:53:49 437.505/2401.250
M-CUBED/EXP-1 PRIME 28 May 00:54:28 00:55:19 11° 335° (NNW) 00:56:08 437.505
POPSAT HIP 1 28 May 00:54:36 00:58:52 54° 102° (ESE) 01:03:05 437.405
DUCHIFAT 1 28 May 00:55:40 00:59:55 54° 101° (ESE) 01:04:07 145.980
AIST 2 28 May 00:56:10 01:00:28 65° 8° (N) 01:04:43 435.215
ANTELSAT 28 May 00:56:43 01:01:14 89° 283° (WNW) 01:05:36 437.575/2403.000
BEESAT 2 28 May 00:59:57 01:04:09 84° 20° (NNE) 01:08:18 435.950
AUBIESAT-1 28 May 01:01:45 01:02:27 10° 335° (NNW) 01:03:06 437.475
KKS-1 28 May 01:07:34 01:10:45 20° 43° (NE) 01:14:00 437.445
SPROUT 28 May 01:08:19 01:12:34 50° 259° (W) 01:16:51 437.525
ITUPSAT 1 28 May 01:12:21 01:16:57 49° 60° (ENE) 01:21:35 437.325
AISAT 28 May 01:12:57 01:15:37 15° 278° (W) 01:18:11 437.250
BUGSAT 1 28 May 01:14:01 01:18:16 57° 103° (ESE) 01:22:31 437.445
PCSat 28 May 01:15:24 01:18:48 17° 111° (ESE) 01:22:21 145.827
BEESAT 28 May 01:19:18 01:23:57 55° 62° (ENE) 01:28:38 436.000
STRAND 1 28 May 01:24:04 01:25:28 11° 345° (NNW) 01:26:49 437.568
TISAT 1 28 May 01:27:38 01:31:45 44° 261° (W) 01:35:53 437.305
SWISSCUBE 28 May 01:27:54 01:32:36 65° 65° (ENE) 01:37:22 437.505
TIGRISAT 28 May 01:29:10 01:33:35 56° 296° (WNW) 01:37:52 435.000
DANDE 28 May 01:31:36 01:39:44 54° 267° (W) 01:46:33 436.750
Cosmos 2491 28 May 01:31:53 01:38:25 22° 350° (N) 01:44:54 435.465 / 435.565
QB50P1 28 May 01:38:37 01:42:57 76° 291° (WNW) 01:47:14 145.935-145.965
POLYITAN 1 28 May 01:41:14 01:45:34 72° 293° (WNW) 01:49:51 437.675
Oscar 19 28 May 01:42:04 01:45:07 16° 80° (E) 01:48:18 437.125/150
GONETS M04 28 May 01:42:53 01:51:35 64° 266° (W) 02:00:11
BEESAT 3 28 May 01:47:44 01:51:49 60° 215° (SW) 01:55:51 437.485
UNISAT 6 28 May 01:50:13 01:54:27 41° 301° (WNW) 01:58:34 437.425
O/OREOS (USA 219) 28 May 01:50:54 01:55:10 43° 242° (WSW) 01:59:24 437.305
CUSAT 1 28 May 01:56:25 02:03:21 35° 277° (W) 02:09:07 437.405
STARS 28 May 02:08:04 02:11:57 30° 53° (NE) 02:15:53 437.465
NANOSAT C BR1 28 May 02:09:42 02:13:51 47° 298° (WNW) 02:17:59 145.865
QB50P2 28 May 02:18:37 02:22:42 41° 300° (WNW) 02:26:44 145.880/145.840
Cosmos 2499 28 May 02:19:22 02:26:34 70° 69° (ENE) 02:33:38 435.465 / 435.565
POPSAT HIP 1 28 May 02:30:40 02:34:39 36° 303° (WNW) 02:38:33 437.405
DUCHIFAT 1 28 May 02:31:41 02:35:37 35° 303° (WNW) 02:39:31 145.980
ANTELSAT 28 May 02:33:55 02:37:33 24° 311° (NW) 02:41:05 437.575/2403.000
AIST 2 28 May 02:34:53 02:39:10 70° 212° (SSW) 02:43:23 435.215
BEESAT 2 28 May 02:38:10 02:42:02 38° 224° (SW) 02:45:51 435.950
ISS 28 May 02:41:22 02:42:45 12° 171° (S) 02:44:10 145.825
KKS-1 28 May 02:42:16 02:46:43 62° 65° (ENE) 02:51:12 437.445
Gurwin Techsat 1B 28 May 02:42:31 02:45:50 17° 80° (E) 02:49:17 435.225
MOZHAYETS 4 28 May 02:44:44 02:47:45 18° 42° (NE) 02:50:51
SPROUT 28 May 02:48:06 02:49:45 12° 282° (WNW) 02:51:16 437.525
BUGSAT 1 28 May 02:49:42 02:53:36 34° 304° (WNW) 02:57:27 437.445
ITUPSAT 1 28 May 02:50:26 02:54:59 42° 262° (W) 02:59:33 437.325
PCSat 28 May 02:56:00 03:01:16 54° 132° (SE) 03:06:35 145.827
BEESAT 28 May 02:57:33 03:02:01 38° 264° (W) 03:06:29 436.000
STRAND 1 28 May 03:02:02 03:02:38 10° 10° (N) 03:03:16 437.568
AO-7 28 May 03:05:56 03:07:05 10° 62° (ENE) 03:08:42 29.400- 29.500
TIGRISAT 28 May 03:06:33 03:09:34 18° 318° (NW) 03:12:29 435.000
SWISSCUBE 28 May 03:06:33 03:10:50 32° 267° (W) 03:15:07 437.505
QB50P1 28 May 03:15:00 03:18:17 21° 313° (NW) 03:21:29 145.935-145.965
DANDE 28 May 03:15:40 03:21:17 20° 291° (WNW) 03:26:12 436.750
POLYITAN 1 28 May 03:17:41 03:20:54 20° 314° (NW) 03:24:03 437.675
Oscar 19 28 May 03:20:31 03:25:40 59° 103° (ESE) 03:30:46 437.125/150
BEESAT 3 28 May 03:26:13 03:29:11 19° 236° (WSW) 03:32:04 437.485
UNISAT 6 28 May 03:27:50 03:30:16 14° 323° (NW) 03:32:37 437.425
Cosmos 2491 28 May 03:32:15 03:39:09 24° 22° (NNE) 03:46:06 435.465 / 435.565
O/OREOS (USA 219) 28 May 03:32:45 03:33:34 10° 263° (W) 03:34:14 437.305
ITAMSAT 1 28 May 03:37:07 03:41:52 34° 94° (E) 03:46:38 435.822/435.867
GONETS M04 28 May 03:40:18 03:46:55 24° 291° (WNW) 03:53:18
CUSAT 1 28 May 03:41:09 03:43:46 12° 301° (WNW) 03:45:59 437.405
STARS 28 May 03:43:41 03:48:09 71° 254° (WSW) 03:52:38 437.465
NANOSAT C BR1 28 May 03:46:19 03:48:52 15° 320° (NW) 03:51:21 145.865
QB50P2 28 May 03:55:24 03:57:40 14° 322° (NW) 03:59:51 145.880/145.840
JAS-2 28 May 04:00:58 04:04:01 16° 79° (ENE) 04:07:12 435.910
POPSAT HIP 1 28 May 04:07:35 04:09:30 13° 325° (NW) 04:11:20 437.405
DUCHIFAT 1 28 May 04:08:33 04:10:26 13° 325° (NW) 04:12:13 145.980
Cosmos 2499 28 May 04:12:51 04:19:24 40° 274° (W) 04:25:49 435.465 / 435.565
AIST 2 28 May 04:13:48 04:17:14 24° 234° (SW) 04:20:36 435.215
ISS 28 May 04:16:53 04:18:12 12° 191° (S) 04:19:30 145.825
BEESAT 2 28 May 04:18:07 04:19:10 11° 245° (WSW) 04:20:05 435.950
KKS-1 28 May 04:19:39 04:23:41 31° 267° (W) 04:27:43 437.445
MOZHAYETS 4 28 May 04:19:45 04:24:14 55° 64° (ENE) 04:28:43
Gurwin Techsat 1B 28 May 04:21:42 04:27:00 61° 103° (ESE) 04:32:17 435.225
BUGSAT 1 28 May 04:26:18 04:28:02 12° 325° (NW) 04:29:41 437.445
CUBESAT XI-V 28 May 04:26:44 04:29:47 18° 42° (NE) 04:32:56 437.345
ITUPSAT 1 28 May 04:33:16 04:34:16 10° 285° (WNW) 04:35:04 437.325
STRAND 1 28 May 04:36:48 04:40:04 18° 34° (NE) 04:43:24 437.568
PCSat 28 May 04:39:15 04:44:41 70° 335° (NNW) 04:50:10 145.827
SO-50 28 May 04:46:26 04:50:41 32° 130° (SE) 04:55:05 436.795
HORYU 2 28 May 04:52:13 04:56:06 29° 93° (E) 05:00:00 437.375
AO-7 28 May 04:55:47 05:03:11 34° 90° (E) 05:10:41 29.400- 29.500
Oscar 19 28 May 05:00:05 05:04:56 41° 305° (NW) 05:09:45 437.125/150
ITAMSAT 1 28 May 05:16:34 05:21:47 68° 296° (WNW) 05:26:59 435.822/435.867
PRISM 28 May 05:17:56 05:20:52 20° 46° (NE) 05:23:53 437.425
STARS 28 May 05:22:30 05:25:27 17° 276° (W) 05:28:17 437.465
AIST 1 28 May 05:29:00 05:30:33 12° 36° (NE) 05:32:11
Cosmos 2491 28 May 05:30:21 05:38:48 45° 52° (NE) 05:47:14 435.465 / 435.565
M-CUBED/EXP-1 PRIME 28 May 05:33:01 05:36:03 23° 44° (NE) 05:38:58 437.505
AUBIESAT-1 28 May 05:39:58 05:42:58 23° 44° (NE) 05:45:52 437.475
JAS-2 28 May 05:45:14 05:50:29 62° 103° (ESE) 05:55:39 435.910
MOZHAYETS 4 28 May 05:57:28 06:01:42 35° 266° (W) 06:05:55
CUTE-I 28 May 06:01:24 06:01:53 10° 72° (ENE) 06:02:37 437.470
Gurwin Techsat 1B 28 May 06:01:55 06:06:54 41° 305° (NW) 06:11:51 435.225
CUBESAT XI-V 28 May 06:01:56 06:06:27 54° 63° (ENE) 06:11:01 437.345
Cosmos 2499 28 May 06:07:54 06:10:34 12° 299° (WNW) 06:12:58 435.465 / 435.565
STRAND 1 28 May 06:13:27 06:18:15 44° 57° (ENE) 06:23:08 437.568
Cubesat XI-IV 28 May 06:20:44 06:23:25 14° 77° (ENE) 06:26:16 437.490
PCSat 28 May 06:23:22 06:28:43 53° 0° (N) 06:34:04 145.827
SO-50 28 May 06:25:58 06:30:49 81° 154° (SSE) 06:35:49 436.795
HORYU 2 28 May 06:28:42 06:33:08 65° 295° (WNW) 06:37:32 437.375
YUBILEINY 28 May 06:38:09 06:44:43 25° 71° (ENE) 06:51:28 435.215
Oscar 19 28 May 06:39:58 06:43:13 17° 327° (NNW) 06:46:24 437.125/150
AO-7 28 May 06:48:45 06:57:11 86° 115° (ESE) 07:05:36 29.400- 29.500
PRISM 28 May 06:51:41 06:55:47 72° 66° (ENE) 06:59:54 437.425
ITAMSAT 1 28 May 06:56:30 07:00:37 24° 318° (NW) 07:04:41 435.822/435.867
AIST 1 28 May 07:05:32 07:09:35 35° 60° (ENE) 07:13:39
M-CUBED/EXP-1 PRIME 28 May 07:06:41 07:10:38 88° 243° (WSW) 07:14:17 437.505
